Weather History for Needles, CA

Change the Weather History Date:

Saturday, March 30, 2013

  Actual Average Record
Temperature  
Mean Temperature 78 °F -  
Max Temperature 91 °F 79 °F 96 °F (2004)
Min Temperature 66 °F 51 °F 39 °F (1967)
Cooling Degree Days 13    
Growing Degree Days 28 (Base 50)    
Moisture  
Dew Point 31 °F    
Average Humidity 19    
Maximum Humidity 27    
Minimum Humidity 10    
Precipitation  
Precipitation 0.00 in - - ()
Sea Level Pressure  
Sea Level Pressure 29.88 in    
Wind  
Wind Speed 4 mph (WSW)    
Max Wind Speed 13 mph    
Max Gust Speed 21 mph    
Visibility 10 miles    
Events      
Averages and records for this station are not official NWS values.
T = Trace of Precipitation, MM = Missing Value Source: NWS Daily Summary

Daily Weather History Graph

Daily Weather History Graph

Search for Another Location

Airport:

Trip Planner

Search our weather history database for the weather conditions in past years. The results will help you decide how hot, cold, wet, or windy it might be!

Date:

Astronomy

Mar. 30, 2013 Rise Set
Actual Time 6:27 AM PDT 6:58 PM PDT
Civil Twilight 6:02 AM PDT 7:23 PM PDT
Nautical Twilight 5:32 AM PDT 7:53 PM PDT
Astronomical Twilight 5:02 AM PDT 8:24 PM PDT
Moon 10:59 PM PDT (3/30) 8:35 AM PDT (3/30)
Length of Visible Light 13h 21m
Length of Day
12h 30m
Waning Gibbous, 85% of the Moon is Illuminated
Mar 30
Waning Gibbous
Apr 2
Last Quarter
Apr 10
New
Apr 18
First Quarter
Apr 25
Full

Hourly Weather History & Observations

Time (PDT) Temp. Dew Point Humidity Pressure Visibility Wind Dir Wind Speed Gust Speed Precip Events Conditions
12:56 AM 73.0 °F 32.0 °F 22% 29.91 in 10.0 mi Calm Calm - N/A   Clear
1:56 AM 71.1 °F 32.0 °F 24% 29.91 in 10.0 mi West 3.5 mph - N/A   Clear
2:56 AM 71.1 °F 32.0 °F 24% 29.92 in 10.0 mi NW 3.5 mph - N/A   Clear
3:56 AM 70.0 °F 32.0 °F 25% 29.91 in 10.0 mi NNW 3.5 mph - N/A   Clear
4:56 AM 69.1 °F 32.0 °F 25% 29.91 in 10.0 mi NW 6.9 mph - N/A   Clear
5:56 AM 68.0 °F 32.0 °F 26% 29.92 in 10.0 mi Calm Calm - N/A   Clear
6:56 AM 66.9 °F 32.0 °F 27% 29.94 in 10.0 mi NNW 5.8 mph - N/A   Clear
7:56 AM 70.0 °F 33.1 °F 26% 29.94 in 10.0 mi ENE 4.6 mph - N/A   Clear
8:56 AM 70.0 °F 34.0 °F 27% 29.95 in 10.0 mi WNW 3.5 mph - N/A   Partly Cloudy
9:56 AM 75.0 °F 33.1 °F 22% 29.95 in 10.0 mi North 4.6 mph - N/A   Clear
10:56 AM 80.1 °F 34.0 °F 19% 29.93 in 10.0 mi Calm Calm - N/A   Clear
11:56 AM 84.0 °F 35.1 °F 17% 29.92 in 10.0 mi SSE 3.5 mph - N/A   Clear
12:56 PM 88.0 °F 34.0 °F 15% 29.90 in 10.0 mi Calm Calm - N/A   Clear
1:56 PM 89.1 °F 33.1 °F 14% 29.87 in 10.0 mi Calm Calm - N/A   Scattered Clouds
2:56 PM 90.0 °F 30.9 °F 12% 29.85 in 10.0 mi SW 12.7 mph 20.7 mph N/A   Partly Cloudy
3:56 PM 90.0 °F 30.0 °F 12% 29.83 in 10.0 mi WSW 8.1 mph 16.1 mph N/A   Clear
4:56 PM 89.1 °F 30.0 °F 12% 29.82 in 10.0 mi South 11.5 mph 16.1 mph N/A   Clear
5:56 PM 89.1 °F 26.1 °F 10% 29.81 in 10.0 mi SSW 8.1 mph 16.1 mph N/A   Clear
6:56 PM 87.1 °F 24.1 °F 10% 29.82 in 10.0 mi SSW 9.2 mph - N/A   Clear
7:56 PM 82.0 °F 26.1 °F 13% 29.83 in 10.0 mi SW 8.1 mph - N/A   Clear
8:56 PM 80.1 °F 28.0 °F 15% 29.85 in 10.0 mi WSW 10.4 mph - N/A   Clear
9:56 PM 79.0 °F 28.0 °F 15% 29.84 in 10.0 mi WSW 10.4 mph - N/A   Clear
10:56 PM 78.1 °F 28.9 °F 17% 29.84 in 10.0 mi WSW 10.4 mph - N/A   Clear
11:56 PM 75.0 °F 28.9 °F 18% 29.84 in 10.0 mi ESE 5.8 mph - N/A   Clear